Back to catalog

SL-16 DEB

AliveLEO
NORAD 20626·DEBRIS·🇷🇺 Russia

Launched May 22, 1990 from Baikonur Cosmodrome

Loading…

Next Passes (next 24 hours)

TLE

FreshSource: Space-Track

Epoch: Sep 14, 2026, 09:18 UTC

1 20626U 90046C   26257.38771492 -.00000027  00000-0  14273-4 0  9999
2 20626  71.0172  31.6840 0206031  16.8124  14.2778 13.72982582818342

Track SL-16 DEB in real time with AllMySat

Download on the App Store